Location: Eindhoven
(51.4416°N, 5.4697°E)
Time: 22:47:31
(UTC+01:00)

Tiros 1 - Pass Details

Date: 21 November 2019
Orbit: 630 x 664 km, 48.4° (Epoch: 11 December)

Event Time Altitude Azimuth Distance (km) Brightness Sun altitude
Rises 18:51:20 0° 278° (W) 2,923 11.9 -19.7°
Reaches altitude 10° 18:53:48 10° 269° (W) 2,016 10.9 -20.1°
Maximum altitude 18:57:59 35° 205° (SSW) 1,033 8.4 -20.7°
Enters shadow 19:00:25 21° 154° (SSE) 1,436 8.7 -21.1°
